Location: ?????
(38.3991°N, 23.6197°E)
Time: 13:38:43
(UTC+00:00)

Daily predictions for brighter satellites

Satellite Brightness Start Highest point End
(mag) Time Altitude Azimuth Time Altitude Azimuth Time Altitude Azimuth
Meteor 2-5 Rocket 4.0 18:06:52 10° SSW 18:12:32 76° W 18:18:08 10° N
Resurs 01 Rocket 1.6 18:09:56 10° SSE 18:14:17 71° ENE 18:18:39 10° N
SL-16 R/B 3.9 18:13:55 10° NW 18:18:56 33° WSW 18:23:54 10° SSW
Cosmos 1937 Rocket 4.0 18:15:09 10° SSW 18:20:19 68° WNW 18:25:27 10° NNE
CZ-4 R/B 2.4 18:16:40 10° S 18:20:35 48° W 18:24:29 10° NNW
Okean O Rocket 1.7 18:17:39 10° SSE 18:21:52 56° ENE 18:26:06 10° N
Okean 2 Rocket 3.5 18:17:42 10° N 18:22:03 47° E 18:26:20 10° SSE
SL-24 R/B 3.8 18:18:29 10° SSE 18:22:04 63° ENE 18:25:53 10° N
Cosmos 2151 Rocket 3.8 18:19:01 10° N 18:23:22 54° E 18:27:42 10° SSE
Cosmos 1680 Rocket 3.7 18:19:51 10° N 18:25:02 60° ENE 18:30:14 10° SSE
CSL-04 Rocket 3.7 18:20:03 10° SSE 18:25:29 81° ENE 18:31:02 10° N
Cosmos 1603 4.1 18:21:11 10° NNW 18:26:45 51° ENE 18:32:14 10° SE
PSLV R/B 3.7 18:25:51 10° SSE 18:29:16 53° ENE 18:32:45 10° N
Cosmos 1892 2.7 18:28:45 10° S 18:32:15 76° W 18:35:49 10° N
Feng Yun 1-1 Rocket 4.4 18:27:26 10° S 18:32:56 80° WSW 18:38:22 10° NNW
Cosmos 1607 4.0 18:26:49 10° NNW 18:33:13 88° WSW 18:39:26 10° SSE
USA 215 3.8 18:29:04 10° ESE 18:35:21 52° NE 18:41:40 10° NW
SPOT 5 3.7 18:31:08 10° SE 18:35:31 35° ENE 18:40:07 10° N
NOSS 2-3 (D) 3.8 18:34:00 10° S 18:37:22 33° ESE 18:40:45 10° NE
Cosmos 2112 Rocket 4.0 18:36:30 10° NNW 18:41:44 72° ENE 18:46:59 10° SSE
ISS -0.7 18:40:01 10° WNW 18:42:02 15° NNW 18:44:04 10° NNE
Timation 2 Rocket 4.3 18:38:12 10° S 18:44:09 42° ESE 18:49:56 10° NE
Cosmos 1328 3.6 18:41:55 10° S 18:45:42 71° E 18:49:30 10° NNE
Cosmos 724 4.3 18:41:30 10° NNW 18:47:22 87° WSW 18:52:57 12° SSE
USA 186 3.9 18:45:08 10° SSW 18:47:42 24° W 18:50:15 10° NW
Cosmos 1825 3.0 18:44:39 10° SSW 18:47:55 46° W 18:51:12 10° N
ARGOS Delta rocket 3.8 18:43:29 10° SSE 18:48:04 78° ENE 18:52:56 10° N
OAO 2 Rocket 3.8 18:43:38 10° W 18:48:36 48° SSW 18:52:42 15° ESE
Okean-O 2.7 18:45:17 10° SSE 18:49:32 62° ENE 18:53:53 10° N
Cosmos 1125 Rocket 4.5 18:46:58 10° SSE 18:51:22 28° E 18:55:48 10° NE
NOSS 2-2 (E) 2.7 18:57:10 10° SSW 19:00:45 84° ESE 19:03:52 10° NE
NOSS 2-2 (C) 3.6 18:57:49 10° SW 19:01:11 53° NW 19:04:14 10° NNE
CZ-4C R/B 3.1 18:57:38 10° NNE 19:01:14 57° E 19:04:27 11° S
Cosmos 2084 3.3 18:59:43 10° SSW 19:03:58 89° ESE 19:08:00 10° NE
NOSS 2-3 (E) 3.0 19:02:44 10° SSW 19:06:23 87° SE 19:10:11 10° NNE
In-Cosmos 22 Rocket 4.5 19:02:31 11° SSE 19:07:55 49° E 19:13:20 10° NNE
Nadezhda 3 Rocket 4.2 19:05:27 10° N 19:11:25 50° E 19:15:33 20° SSE
Cosmos 2181 Rocket 4.2 19:06:00 10° N 19:12:09 72° W 19:18:19 10° S
Cosmos 1844 4.5 19:06:30 10° SW 19:12:10 56° WNW 19:17:52 10° NNE
Terra 2.3 19:13:57 23° SE 19:16:32 45° ENE 19:21:01 10° N
Hubble Space Telescope 2.2 19:13:42 10° SW 19:16:35 19° S 19:16:52 19° S
Meteor 1-21 Rocket 4.2 19:13:08 10° S 19:18:42 89° W 19:24:15 10° N
H-II Stage 2 3.6 19:18:49 10° SW 19:21:41 25° SSE 19:23:25 22° SE
NOSS 2-3 (C) 3.7 19:20:33 10° SW 19:24:07 57° NW 19:27:52 10° NNE
Cosmos 1437 Rocket 4.2 19:32:35 19° ENE 19:32:35 19° ENE 19:34:41 10° NE
GP-B 4.2 19:28:28 10° NNW 19:32:40 44° W 19:36:50 10° SSW
Meteor 2-1 Rocket 4.5 19:28:39 10° N 19:34:07 51° ENE 19:36:36 30° SE
Cosmos 1833 Rocket 4.1 19:29:34 10° N 19:34:10 25° ENE 19:36:42 18° E
ATLAS CENTAUR R/B 2.1 19:30:48 10° NNW 19:34:38 40° NE 19:35:58 31° E
Okean 1 Rocket 4.3 19:31:16 10° NNW 19:35:25 39° W 19:39:21 11° SSW
Cosmos 44 3.5 19:33:00 10° SSW 19:38:12 56° ESE 19:43:14 10° NE
Cosmos 1975 Rocket 3.0 19:35:44 21° S 19:38:39 89° ESE 19:43:09 10° N
Cosmos 1025 Rocket 4.3 19:35:28 10° SSW 19:39:26 39° WNW 19:43:26 10° N
Lacrosse 5 4.4 19:36:22 10° W 19:40:20 23° NNW 19:44:19 10° NNE
Cosmos 1455 Rocket 3.0 19:36:22 10° N 19:40:46 88° W 19:42:42 33° S
ERS-1 Rocket 2.9 19:38:08 27° S 19:40:56 85° WSW 19:45:58 10° NNW
Spot 2 Rocket 3.5 19:39:22 32° SSE 19:41:46 70° ENE 19:46:51 10° N
Cosmos 2278 Rocket 3.2 19:49:26 26° E 19:49:26 26° E 19:54:00 10° NE
Cosmos 2341 Rocket 4.2 19:48:47 31° SSE 19:51:37 55° E 19:57:45 10° NNE
Cosmos 2298 Rocket 4.1 19:53:06 36° SSE 19:55:04 58° ESE 20:00:18 10° NNE
Cosmos 1339 Rocket 4.4 19:49:51 10° N 19:56:04 73° E 19:58:45 35° SSE
Meteor 1-11 4.3 19:53:04 18° SSW 19:57:27 78° W 20:03:10 10° N
Landsat 5 3.8 19:53:32 10° NNE 19:57:46 47° E 19:58:00 47° ESE
Okean O Rocket 4.4 19:57:09 10° WSW 19:58:27 11° W 19:59:45 10° WNW
Cosmos 1606 2.3 20:00:38 10° N 20:04:10 84° ENE 20:04:10 84° ENE
Ariane Rocket 3.1 20:07:17 39° S 20:09:08 71° WSW 20:14:13 10° NNW
Cosmos 1536 Rocket 3.9 20:10:07 47° E 20:10:07 47° E 20:14:04 10° NNE
MOS 1 Rocket 4.1 20:11:40 29° SSW 20:13:34 44° W 20:17:54 10° NNW
ATLAS 3B R/B 3.7 20:14:16 28° ESE 20:14:16 28° ESE 20:20:01 10° NE
Cosmos 1869 3.2 20:11:18 10° N 20:15:07 75° W 20:15:15 73° WSW
USA 215 3.8 20:15:52 32° S 20:18:21 45° SW 20:24:35 10° WNW
Cosmos 921 Rocket 4.4 20:17:00 10° NW 20:20:36 29° W 20:21:45 25° SW
ARIANE 5 R/B 4.2 20:21:26 23° ENE 20:21:26 23° ENE 20:24:54 10° NNE
Cosmos 1943 Rocket 3.1 20:26:53 32° E 20:26:53 32° E 20:31:05 10° NE
Cosmos 1821 Rocket 4.3 20:25:12 43° ESE 20:26:11 47° E 20:32:12 10° NNE
Cosmos 2228 2.9 20:27:32 10° N 20:31:33 81° N 20:31:33 81° N
NOSS 3-1 (C) 2.9 20:37:13 48° SW 20:38:33 79° WNW 20:44:04 10° NNE
USA 276 4.5 20:41:26 10° NW 20:42:48 23° NNW 20:42:48 23° NNW
Cosmos 2366 rocket 4.2 20:45:59 38° SSW 20:48:18 64° W 20:54:24 10° N
SeaSat 1 4.3 20:47:14 18° ENE 20:48:23 19° NE 20:51:49 10° N
Terra 4.0 20:52:39 14° WSW 20:54:19 17° W 20:57:22 10° NW
BREEZE-M DEB (TANK) 4.5 20:54:30 10° NW 20:58:43 89° NE 21:03:15 37° SE
Meteor 2-13 Rocket 4.3 21:05:06 10° N 21:11:18 86° W 21:11:57 73° S
Cosmos 2239 Rocket 4.3 21:10:55 71° SE 21:11:19 74° E 21:17:31 10° N
ATLAS CENTAUR R/B 3.7 21:09:14 10° WNW 21:10:52 16° W 21:10:52 16° W
SL-08 R/B 4.3 21:12:45 73° SE 21:13:04 75° E 21:19:11 10° N
NOSS 3-1 (A) 3.1 21:16:36 68° NNE 21:16:36 68° NNE 21:21:27 10° NNE
Cosmos 1833 Rocket 3.2 21:12:53 10° NW 21:18:15 45° WSW 21:18:22 45° WSW
Cosmos 2123 Rocket 4.4 21:16:49 10° N 21:22:52 48° E 21:23:11 47° E
Cosmos 1000 Rocket 4.3 21:21:39 10° N 21:27:50 79° E 21:28:02 78° ESE
Cosmos 2082 Rocket 2.4 21:26:12 10° NNW 21:31:39 61° ENE 21:31:39 61° ENE
Cosmos 2278 Rocket 3.3 21:31:13 30° WSW 21:33:12 40° WNW 21:38:30 10° N
Cosmos 2369 Rocket 4.0 21:37:52 19° ENE 21:37:52 19° ENE 21:40:18 10° NE
Cosmos 489 Rocket 4.4 21:39:57 70° E 21:39:57 70° E 21:45:50 10° NNE
H-2A R/B 4.0 21:44:33 31° N 21:44:33 31° N 21:46:41 10° N
USA 229 DEB 4.2 21:44:54 39° E 21:44:54 39° E 21:49:36 10° NE
USA 229 4.2 21:45:03 38° E 21:45:03 38° E 21:49:42 10° NE
ULPM Upper Stage 4.4 21:41:24 10° NNW 21:44:39 31° NNE 21:44:39 31° NNE
Cosmos 1934 Rocket 3.9 21:54:43 82° WSW 21:54:50 82° W 22:01:07 10° N
CZ-4C R/B 4.0 21:49:14 10° NNW 21:56:06 41° NE 22:00:34 24° ESE
ARIANE 5 R/B 4.4 21:58:54 26° WNW 21:58:54 26° WNW 22:01:34 10° NW
ISS -0.6 21:55:58 10° NNW 21:57:19 14° N 21:57:19 14° N
Cosmos 2058 Rocket 4.3 21:54:39 10° N 21:57:25 39° NNW 21:57:25 39° NNW
COSMOS 2406 3.3 21:55:40 10° NNW 22:00:48 73° N 22:00:48 73° N
ATLAS 3B R/B 3.3 22:01:26 37° WSW 22:04:09 57° NW 22:11:38 10° NNE
Cosmos 1943 Rocket 3.5 22:08:20 29° W 22:09:44 32° WNW 22:14:46 10° N
USA 281 3.4 22:09:48 54° E 22:10:43 59° ENE 22:17:10 10° NNW
Meteor 2-19 Rocket 4.4 22:09:50 10° N 22:15:45 81° NW 22:15:45 81° NW
USA 81 4.5 22:12:06 10° N 22:16:27 59° NNE 22:16:27 59° NNE
ALOS 2 4.1 22:19:19 34° NW 22:19:19 34° NW 22:21:57 10° NNW
Meteor 2-3 Rocket 3.9 22:21:26 71° NNE 22:21:26 71° NNE 22:26:30 10° N
SeaSat 1 3.4 22:26:56 40° NW 22:26:56 40° NW 22:30:15 10° NNW
H-2A R/B 3.8 22:22:39 10° NNE 22:24:34 26° NNE 22:24:34 26° NNE
Cosmos 407 Rocket 4.0 22:24:27 10° NNW 22:28:37 57° N 22:28:37 57° N
BREEZE-M DEB (TANK) 4.0 22:10:58 10° SW 22:31:04 88° NW 22:35:37 10° NE
Gblst 52 Del rocket 4.5 22:32:26 58° NE 22:32:26 58° NE 22:36:51 10° NE
Cosmos 1605 Rocket 4.0 22:32:33 70° WNW 22:32:33 70° WNW 22:38:29 10° N
USA 234 3.9 22:29:14 10° ENE 22:34:08 39° E 22:34:08 39° E
Cosmos 2100 Rocket 4.5 22:40:39 47° E 22:40:39 47° E 22:46:25 10° NNE
Lacrosse 5 rocket 3.8 22:44:25 16° NE 22:44:25 16° NE 22:45:18 10° NE
Milstar 3 4.4 22:38:01 42° SW 22:42:26 56° SSE 23:03:19 10° E
Cosmos 1241 Rocket 4.5 22:38:01 10° NNW 22:44:08 76° W 22:44:08 76° W
Meteor 1-26 Rocket 4.4 22:39:13 10° N 22:44:14 66° NE 22:44:14 66° NE
Cosmos 2297 3.9 22:46:45 64° NW 22:46:45 64° NW 22:52:06 10° NNE
Timation 1 Rocket 4.3 22:44:59 10° NNW 22:50:42 78° NNE 22:50:42 78° NNE
Cosmos 2251 Rocket 4.1 22:46:53 10° NNW 22:51:01 53° NW 22:51:01 53° NW
Cosmos 1624 Rocket 4.4 22:57:43 60° N 22:57:43 60° N 23:02:00 10° NNE
Cosmos 1153 Rocket 4.4 22:57:06 77° WNW 22:57:06 77° WNW 23:03:16 10° N
Cosmos 1447 Rocket 4.5 22:55:40 10° NNW 23:01:37 69° WNW 23:01:37 69° WNW
Cosmos 1954 Rocket 4.4 22:58:29 10° NNW 23:02:58 57° NNE 23:02:58 57° NNE
Cosmos 2173 Rocket 3.9 23:05:22 73° E 23:05:22 73° E 23:11:21 10° N
Meteor 2-21 4.3 23:00:22 10° N 23:06:31 84° ENE 23:06:31 84° ENE
CZ-2D R/B 4.4 23:04:34 10° ENE 23:06:46 13° E 23:07:07 12° E
Cosmos 2056 Rocket 4.0 23:11:01 55° NW 23:11:01 55° NW 23:15:35 10° N
Meteor 2-15 Rocket 4.5 23:11:01 65° E 23:11:02 65° E 23:17:04 10° NNE
CENTAUR R/B 4.4 23:04:07 10° NNW 23:11:54 40° NE 23:20:27 10° ESE
Cosmos 2082 Rocket 4.3 23:11:51 10° WNW 23:13:28 14° WNW 23:13:28 14° WNW
Lacrosse 4 Rocket 3.0 23:20:40 32° N 23:20:40 32° N 23:23:04 10° NNE
Cosmos 2369 Rocket 2.8 23:19:37 45° WNW 23:19:40 45° WNW 23:25:02 10° N
Iridium 4 Rocket 4.3 23:26:45 10° NNW 23:31:55 48° WNW 23:31:55 48° WNW
BREEZE M DEB (TANK) 4.2 23:17:24 10° WNW 23:32:21 80° NNE 23:33:53 49° ESE
Cosmos 676 Rocket 4.3 23:32:31 10° NNW 23:36:47 60° NW 23:36:47 60° NW
Cosmos 1331 Rocket 4.3 23:39:12 59° ENE 23:39:12 59° ENE 23:43:52 10° NNE
CZ-4C R/B 3.2 23:37:25 10° NW 23:44:54 53° WSW 23:45:35 52° SW
COSMOS 2455 3.0 23:39:20 10° NNW 23:45:22 68° ENE 23:46:54 49° ESE
Cosmos 1340 Rocket 4.3 23:42:29 10° N 23:44:46 34° N 23:44:46 34° N
Meteor 2-21 Rocket 4.4 23:41:30 10° NNW 23:47:33 64° W 23:47:39 63° W
Resurs 1-4 Rocket 3.1 23:42:44 10° NNE 23:47:34 34° E 23:48:08 33° ESE
Meteor 1-20 Rocket 4.4 23:48:13 61° ESE 23:48:37 63° E 23:54:10 10° NNE
Cosmos 2221 4.2 23:44:40 10° NNW 23:46:52 26° NW 23:46:52 26° NW
ADEOS II 3.7 23:49:18 10° NE 23:53:29 24° E 23:54:39 22° ESE
